TIMESTAMP,CO2_1_1_1,H2O_1_1_1,TAU_1_1_1,TAU_SSITC_TEST_1_1_1,H_1_1_1,H_SSITC_TEST_1_1_1,LE_1_1_1,LE_SSITC_TEST_1_1_1,FC_1_1_1,FC_SSITC_TEST_1_1_1,WD_0_0_1,WS_0_0_1,WS_MAX_0_0_1,U_SIGMA_0_0_1,V_SIGMA_0_0_1,W_SIGMA_0_0_1,USTAR_0_0_1,MO_LENGTH_0_0_1,ZL_0_0_1,FETCH_MAX_0_0_1,FETCH_70_0_0_1,FETCH_80_0_0_1,FETCH_90_0_0_1,PA_0_0_1,RH_0_0_1,TA_0_0_1,VPD_0_0_1,T_SONIC_0_0_1,T_SONIC_SIGMA_0_0_1
[yyyymmddHHMMSS],[mmolCO2 mol-1],[mmolH2O mol-1],[kg m-1 s-2],[#],[W m-2],[#],[W m-2],[#],[umolCO2 m-2 s-1],[#],[Decimal degrees],[m s-1],[m s-1],[m s-1],[m s-1],[m s-1],[m s-1],[m],[#],[m],[m],[m],[m],[kPa],[%],[deg C],[hPa],[deg C],[deg C]
20191027003000,414.87102248546671,5.0847174076894657,0.38873562264232409,0,-39.698766295654892,0,7.7435666242737797,0,1.8756833746436579,0,127.80652364495812,2.7833726750139043,6.7225943037118814,1.1442550863849721,0.86585512080258165,0.64194030666043311,0.57779397477018590,402.76820721952743,4.71735347016705234E-002,115.10060078062673,210.44060768078617,251.84366011274483,315.27837760528723,93.239375939340476,53.468620689655175,5.2779310344827763,4.1269537705964208,4.9332257186563311,0.15132081677822651
20191027010000,415.20649826766930,5.1098527072641522,0.30666841689035995,0,-34.504239901818067,0,5.3575273159862533,1,1.2738151204712433,0,128.62511633074595,2.7892564582057378,6.4248317338572516,1.0185225135805898,0.74371522311795168,0.58061332283912981,0.51292480648784144,324.23204034556454,5.86000075123664990E-002,113.39352726247559,207.31953284643160,248.10853066965777,310.60243876912574,93.255643329210073,54.665666666666667,5.0333333333333599,3.9528703312454865,4.6773202226426633,0.17599300641022675
20191027013000,415.74117429763078,5.1521532232908260,0.50631857276614767,0,-31.124836582923368,0,8.4844867942359574,0,1.8807104371487864,0,126.33140447978622,3.0723627663389022,7.3717533764709255,1.2612073225377773,0.85987463487446236,0.70475390474956379,0.65877051530657260,761.26683471628678,2.49583971526633336E-002,118.63483475963783,216.90231458053296,259.57667292877170,324.95919201827019,93.217722857672456,56.536333333333332,4.6636666666666997,3.6931968947370839,4.3156323954722211,0.14471893496354699
20191027020000,416.19429265980227,5.1605844329181529,0.42565208859471104,0,-27.516110045415431,0,5.7158361632573316,0,1.6226152090615145,0,125.36246995707916,2.9107321824904964,7.7340541123155608,1.1645632047936145,0.92081296342599339,0.70487598767499693,0.60379807481394465,662.79711224367031,2.86663892298535741E-002,110.63132301980411,202.26934253096914,242.06474269865333,303.03633341139874,93.173446380484677,57.944000000000003,4.3290000000000077,3.4908164907978518,3.9883111736392038,0.13119021601015401
20191027023000,416.60494294518764,5.2815637848432058,0.27210145140219238,0,-23.314034302939472,0,0.51873882955676098,2,0.89031032274983002,0,123.53963674487505,3.0987590109803289,6.4399237823364492,0.96513800744067690,0.74760756517122395,0.62127226934651736,0.48267691586540290,399.42218937372104,4.75687142714611919E-002,102.31859023467976,187.07101578961991,223.87622729607085,280.26647045511942,93.107703497612846,60.530333333333331,4.0269999999999868,3.2074139695583277,3.6937209167481342,0.13127118661661358
20191027030000,417.26472787687572,5.4933503602544382,0.37264188426849154,0,-24.496859088553862,0,0.68469020645361534,2,1.6224442231597294,0,124.80795272458087,3.0168215187002949,6.6471901803185665,1.1197868403720965,0.83490864668570008,0.64036757212789208,0.56466841068766771,608.42331332590970,3.12282576683947793E-002,113.22601663528373,207.01326999515049,247.74201225729794,310.14360120950823,93.060616370876744,64.474000000000004,3.6816666666666720,2.8176133691186744,3.3668667026096273,0.13335958141874216
20191027033000,417.59993551977931,5.6934808024910426,0.32648580770775570,0,-19.568775429610966,0,-6.0270441459305202,0,1.4141688289666459,0,121.16551559550857,3.1351474459792934,6.9757147455539634,1.1791787548860051,0.87273324478295777,0.66869534892741134,0.52842518646425274,624.06353300313867,3.04456181064892348E-002,103.71917777285118,189.63173650388171,226.94075597384608,284.10289670949209,93.028685368745840,67.934333333333328,3.4429999999999836,2.5007033704147275,3.1596247049566273,9.34179749654776986E-002
20191027040000,417.92068142990200,5.9497199411847639,0.39809001550299261,0,-20.410826791054017,0,-11.585385054937731,1,1.6477982519235643,0,127.30884150576898,3.0185767902901679,7.4495200155556320,1.1390459781915732,0.84712837403087804,0.66904347372345774,0.58326523310327871,804.71450727222464,2.36108580475392661E-002,112.19778957813445,205.13334299848148,245.49221978233967,307.32712800094748,93.042311334418415,72.065666666666672,3.2326666666666597,2.1463641009989578,2.9739546059502118,9.33208295629035928E-002
20191027043000,418.18835269129198,6.0188388603522327,0.41875520212054818,0,-18.921608268856261,0,4.1581299282827873,0,1.8582669699241006,0,129.50527857257731,2.8746590407053918,7.1815569443401097,1.2738663278735556,0.89434378099176737,0.67512379542564194,0.59791067661362052,935.23503865260022,2.03157486778654424E-002,113.62063556190451,207.73475925026472,248.60545062474273,311.22452358622513,93.061007551432297,74.118333333333339,3.0020000000000095,1.9564265165532413,2.7456308907403582,0.10376963135607498
20191027050000,418.05305216122304,5.8416298308613079,0.24300090630072532,0,-24.538004494778015,0,9.6339693080057316,0,2.0379638017869914,0,134.39808455109184,2.0938777181869010,5.5451039752163913,0.87184309317448494,0.66324324908004573,0.48220250700368339,0.45538381062413313,318.52490423700345,5.96499669170695440E-002,119.61162708822268,218.68820248912087,261.71392463321519,327.63477753672009,93.029129947048617,72.840666666666664,2.8210000000000264,2.0268175925059664,2.5625623897976766,0.10430716807868111
20191027053000,418.21208761100183,5.8066658483407396,6.81689911485141020E-002,0,-12.739850130307721,0,1.0423151685393739,1,0.80532526918587621,0,143.62020127434454,1.7463284388127689,4.1846104563802680,0.60319445142933481,0.44383966826626625,0.30224345364952121,0.24113975503173044,91.076043477155039,0.20861687963823158,104.51639693571521,191.08930739360821,228.68509606004906,286.28660350649363,93.003901454807675,73.400000000000006,2.6250000000000000,1.9576275038956794,2.3686392962455329,0.11505048178254169
20191027060000,418.44069067146171,5.8317549084438003,0.10340198021870087,0,-16.294180800016992,0,0.47644880997696715,2,0.87679618325428088,1,140.04115604839319,2.0518453635895813,4.5593288360704367,0.64571694318689588,0.54461604969040456,0.37406148578059667,0.29691743380207103,132.91937066534152,0.14294380047763960,104.09001302181650,190.30974161082685,227.75215492193885,285.11867190840246,92.989216145688630,74.646666666666661,2.4466666666666583,1.8423535557621096,2.1919952791090509,0.15085640388152571
20191027063000,419.18772976062485,5.8747776637233367,0.13474113314317090,1,-27.544537742088185,1,7.0135501474890383,1,2.1707399941088803,1,232.34108308608589,1.3390760191699991,4.6718060556022678,0.76085863871855208,1.5254126276142728,0.27615504207442487,0.33870537771012416,116.75794367244870,0.16272982721674481,147.43146866539075,269.55174557557751,322.58459497753529,403.83763363129890,93.031358137803821,76.635000000000005,2.1873333333333562,1.6667708596403157,1.9440823313395867,0.22122272473061921
20191027070000,419.54249858540760,5.9972268484059743,2.91264341130253769E-002,0,-5.4530204296629616,0,2.66044800550078245E-002,2,0.20678195404829069,0,258.95171320891370,1.4988879007497609,3.5458650309243906,0.54040195444599792,0.51193195825066062,0.17286460162031997,0.15745757792086978,59.251468891891214,0.32066715568970849,127.35907909908791,1163.0000000000000,2126.0000000000000,5701.0000000000000,93.025886541420107,78.760000000000005,2.0923333333333289,1.5049413612843945,1.8964822275609663,0.11851746606129694
20191027073000,419.92508625053455,6.0428195852362219,8.35384792608774400E-003,0,-3.6422610411958023,0,0.61187746914139229,2,0.22004464177865535,2,273.12542542119417,1.7553147632310391,2.4468731329684430,0.24065594471148705,0.19356906413298022,0.10000563695785068,8.43149429932581046E-002,13.619072620078457,1.3951023340596993,577.48341737794749,5865.0000000000000,-9999.,-9999.,93.012951434461812,80.015666666666661,1.9750000000000227,1.4041521516293995,1.7773017764620818,0.14208950655690333
20191027080000,420.28382387228368,6.0429881234847649,2.21388808910982574E-002,0,-11.190739517637541,0,-0.71231869106552970,0,0.28252847123181546,0,268.57291432700202,2.1282172971477360,3.2355835558129136,0.31932909276605231,0.23193630802237145,0.16394980159954067,0.13721908434363989,19.100839553596067,0.99472067427648314,328.74925380672136,3243.0000000000000,6060.0000000000000,-9999.,92.972297800130207,81.590000000000003,1.6970000000000027,1.2680566034545746,1.5072757059733135,0.16042512257102604
20191027083000,420.10610139042802,6.1609163446974593,1.20070162647155504E-002,0,-6.9457779255299847,0,-1.2752618012106187,1,0.28096709452858254,0,260.67358511090117,1.6862121428893417,2.7683484262768889,0.27500254163678084,0.17475956598876335,0.12240617944160931,0.10108964312632493,12.301272454378710,1.5445556604379442,392.40117201037816,3675.0000000000000,6768.0000000000000,-9999.,92.934648340044518,82.736666666666665,1.7663333333333071,1.1949949981204271,1.6183018055228331,0.19723777612246854
20191027090000,420.33275389695336,6.2491319054566956,2.20593000648414451E-002,0,-7.8044142579775011,0,-1.0537268230463133,0,0.43430690916054754,0,257.45726812639401,1.8804239439730583,2.9721881802546939,0.33260772082655726,0.22951646391625816,0.16881793691959918,0.13705349943379666,27.276505772903558,0.69657016034929853,253.37036411383468,2509.0000000000000,4694.0000000000000,-9999.,92.905039431423617,83.676666666666662,1.8026666666666529,1.1328695950235386,1.6406737331814725,0.19331547555785814
20191027093000,420.43892462874703,6.2185668975550250,3.31568549482944147E-002,0,-10.778159883390620,0,-0.54506226679637959,0,0.69714228055649330,0,253.88468563166057,2.2458224195246141,3.9529575482296342,0.46530198039094017,0.28676980802195207,0.19400693250700562,0.16801229753331873,36.373933814999276,0.52235208038359315,232.40553073069202,2312.0000000000000,4331.0000000000000,-9999.,92.861988761284707,84.276666666666671,1.6279999999999859,1.0776606916401990,1.4720793813069690,0.20255084363628481
20191027100000,420.70612011623945,6.2093346535864784,6.20478133533299420E-002,0,-19.571992902089782,0,-1.0879146879628228,0,1.1921199536059190,0,252.77407108038511,2.4966886296294692,4.9042339151153875,0.52389731511641457,0.43025191351701114,0.29602955148990523,0.22975475046235463,51.225232098781746,0.37091095972704952,102.23472799727780,186.91768887316033,223.69273413730960,280.03675879444063,92.866643191685185,85.243333333333339,1.4490000000000123,0.99850245520792102,1.2843297128977156,0.23436447356167581
20191027103000,420.53433532661268,6.2140531227997977,7.73368026493977540E-002,0,-32.856187336389333,0,-2.4017521542690190,0,1.8826874885256739,0,245.84834423428379,2.6550914075272671,5.0283485401926029,0.56270312899511199,0.50458512901975272,0.31653363548819985,0.25649757839007381,42.460313044939028,0.44747668204638136,105.82435316278210,193.48066852792954,231.54694457567581,289.86929824875943,92.874035179036454,85.269999999999996,1.4563333333333048,0.99722289291895660,1.2745780826144255,0.27462315814971083
20191027110000,421.70717651091098,6.1783903742947919,0.14728117448431002,0,-40.310927438482949,0,-0.24604963730021404,2,2.9750999256540216,0,241.50844685040687,3.6896165461596913,6.4894910950079430,0.84847999377558803,0.55032670614075263,0.41806903537937951,0.35367056072368203,90.765892236797328,0.20932973313842693,109.53064034762376,200.25694356149017,239.65641510605548,300.02139304801460,92.934673006510423,86.549999999999997,1.1779999999999973,0.89253408795436717,0.99756514316140965,0.28877207714863434
20191027113000,421.10666533063409,6.2732672111437200,0.30589842972529463,0,-58.800189174573454,0,0.23964136600820984,0,3.5093931702046479,0,246.78581522172865,4.0224698257470903,8.3197058866577329,1.0326775949614992,0.86216481724384908,0.65516009828975663,0.50962543552371109,186.29361384408736,0.10198954010254725,102.41836176329861,187.25342996443214,224.09453047409079,280.53976012920288,93.014721201388895,87.030000000000001,1.3249999999999886,0.86982712613581270,1.1515205976697871,0.24031743471561479
20191027120000,421.07784685299009,6.1061949355248908,0.22886291309830897,0,-35.134587952042153,0,5.7341940105998690,0,1.3716617630561081,0,243.03660497905670,3.2696913407874892,7.8100842926097895,0.95086992173649343,0.73821108645734224,0.52993152895261497,0.44078413120868226,201.75903426609480,9.41717433824618144E-002,108.05872855881569,197.56581936936152,236.43582677078660,295.98959862117249,93.038189229259316,84.393333333333331,1.3810000000000286,1.0508734190863163,1.1495258596355598,0.22009014774034280
20191027123000,421.70435090059920,5.9758661641573321,0.11531725653498638,0,-34.672625954763397,0,-0.92392670593803417,0,0.76138897980359177,0,235.67780078782707,2.9514639178213709,5.0877717072630571,0.64229503758576700,0.52150163129568172,0.35757566586304124,0.31271004741633629,73.002164441566393,0.26026625573832535,112.47966217535505,205.64869600485474,246.10896570797405,308.09922071410784,93.043572252604164,84.266666666666666,1.1026666666666642,1.0384094859404149,0.87394142489966953,0.23181114526917951
20191027130000,421.69512260224246,5.9942624970088545,0.21950982315826051,0,-50.481300158719129,0,6.0214333446817143,0,1.7903809709600753,0,241.25902413265021,2.8944833433011437,5.6438767871698028,0.81427090332123087,0.63275451567422891,0.48280089601542003,0.43139391625448048,131.66714922960259,0.14430326859183074,114.42993699051557,209.21442037521783,250.37622708058717,313.44132558096408,93.069842959852423,84.456666666666663,1.1179999999999950,1.0270023605025642,0.90240474107531554,0.23599373852359687
20191027133000,420.11741030958240,5.8289403027640150,0.19931044898683589,0,-27.334471195365303,0,8.0348120971125816,0,0.67059194713064374,1,242.49257473290612,3.2710639320082513,7.3806211300319626,0.86757006187206698,0.70699314673364977,0.49847928980300338,0.41134947561530144,210.85881494284723,9.01076865349447337E-002,107.37568875859061,196.31700477017898,234.94131464726419,294.11864678778255,93.097640248480914,79.384333333333331,1.5950000000000273,1.4096371650691355,1.3399679946899141,0.21340315276309399
20191027140000,418.94933302031023,5.6966373735099323,0.24722884870122491,0,-11.982151707555117,1,12.454394983081903,0,0.57244240879098529,1,240.69188114202564,3.0199740377945017,6.9237567597145695,1.0127244178589927,0.78541575778461092,0.59504497703812098,0.45869844986593117,667.00373586815704,2.84855975735578588E-002,101.68031499891551,185.90404509119730,222.47966141853416,278.51813569897922,93.102663068359377,73.786999999999992,2.2973333333333130,1.8846644201237108,1.9996265394422608,0.22339687669434949
20191027143000,418.09242734363943,5.6807645057994804,0.24282673623237946,1,20.381882539316745,0,17.530079196917743,0,7.05248318393570800E-002,0,235.61106262263053,1.3596582678797613,4.9212590021002134,1.1180749907067049,0.53388634048745121,0.45169675929506614,0.45549330633499541,-383.80993410270781,-4.95036691648413282E-002,126.05582509255618,230.47025171258164,275.81402837633794,345.28643424393221,93.051144610464490,68.808000000000007,3.2339999999999804,2.3968964524142518,2.9135439583815241,0.35055935223605028
20191027150000,418.11743268855633,5.7986387802483295,0.27240909138010932,0,19.889261099085154,1,8.3240715460999759,1,0.23760484593502615,2,240.64912748285963,2.1920752911370469,5.3129709681330830,0.92553171685172653,0.72771204979058979,0.54091583027529233,0.48307345838547067,-469.29634325409637,-4.04861454241347424E-002,114.38305397965024,209.12870327878662,250.27364560861091,313.31290575081005,93.080588203593805,66.404333333333327,4.0339999999999918,2.7314200728318609,3.6879386090506614,0.20443144250632203
20191027153000,417.76015646634721,5.8467314449884196,0.51517419425635580,0,95.491970339538341,0,28.756460794966532,0,-0.80483544613376456,1,239.73064697684430,3.1776006960959502,7.6388854099909747,1.2946138598524892,0.95915477146131689,0.73250631071794026,0.66498465203758450,-255.03825827389542,-7.44986267103313060E-002,115.89243845133767,211.88833948651791,253.57622532834321,317.44734366154876,93.111586759548601,64.040333333333336,4.6736666666666906,3.0577038960563074,4.2800343356661870,0.26797906056088439
20191027160000,417.24720295990608,5.9451995666857638,0.31349221277352063,0,65.546054738563910,0,20.005192983466110,0,-0.11185168347678603,2,238.94331223492060,2.8239015359389379,6.4902606130993146,1.0518572279042484,0.92670350734808038,0.65206619754971018,0.51944672246899337,-177.14457738193326,-0.10725702294027875,104.38890888223513,190.85621857161743,228.40614827184191,285.93739397680702,93.141974878689226,61.435333333333332,5.5140000000000100,3.4769602175853049,5.1032577752006887,0.40016141844590919
20191027163000,416.58825443754876,6.0410158381411900,0.26573828198007959,0,79.197118768522500,0,21.675774307241781,0,-0.62359325861763348,0,242.09133887293530,2.3555362334877792,5.7523167891839986,0.91283835869714280,0.83960304922997175,0.61974490052518594,0.47922117290056637,-115.13141361803034,-0.16502880841050035,101.93265317287398,186.36539975232625,223.03178511628090,279.20932905117672,93.150593104383674,57.664666666666669,6.6630000000000109,4.1324278121244387,6.2189191792807037,0.43258229475701560
20191027170000,416.73734016226319,6.1420388914386921,0.64578438711444441,0,185.16933475546585,0,30.948737245910781,0,-0.28159360350401252,2,260.54856418408991,3.5119283832620645,8.4808207131335305,1.5579295365715271,1.2960977419371826,0.87136801041754164,0.74776612361590578,-187.16847442368487,-0.10151282184942403,110.79144816242028,202.56210236096641,242.41510144325616,303.47494098456036,93.209719059513390,55.915333333333336,7.3629999999999995,4.5148869824337714,6.8165496651514559,0.38321082524020944
20191027173000,418.18468598619972,6.6241483835667836,0.78835483486038005,0,156.07575165346177,0,1.1671660239456783,2,-2.2862047033894126,1,256.55782281636641,3.8264793786759093,9.5318452094849544,1.6178242720093416,1.4596094238305559,0.99388030519010018,0.82617550637041159,-299.56608960137868,-6.34250693237094487E-002,108.00540364162259,197.46832441362253,236.31915020932615,295.84353341156844,93.231512690104168,60.315666666666665,7.3636666666666883,4.0644166213931081,6.8756378292507634,0.32742058246338446
20191027180000,419.21658752926771,7.3728394077205879,0.82418424856811245,0,222.74023255908830,0,47.578441983832505,1,-1.8215887406970743,0,268.96383237982667,3.8297157573485037,9.3644514237946694,1.7741591805164507,1.7212226783727165,1.0176061204113795,0.84465336263537183,-224.32003407590045,-8.47004150934249633E-002,107.87826268701188,197.23587019906643,236.04096188413732,295.49527463945964,93.221814745659728,67.897666666666666,7.1966666666666583,3.2505028923734871,6.7487268151177773,0.49359928300205097
20191027183000,418.56537355205757,7.7349308086021926,0.82093793617501798,0,144.80494395751796,0,29.808589417268312,1,-0.88628592436025166,0,265.13658393489555,2.8189282871939549,8.3170952252953629,1.4560289480760451,1.1889057058137431,0.88402009945749593,0.84193962012316981,-341.83637495209234,-5.55821480457216119E-002,120.42313967167313,220.17190631033205,263.48953916396147,329.85763622712921,93.253743756250699,74.456999999999994,6.5570000000000164,2.4751729946571381,6.3763994685118632,0.28434378110137204
20191027190000,419.60607943544022,7.8711057855368995,0.64024515684876682,0,105.84077981970080,0,13.246472310880502,0,-1.0407959661148267,0,278.16031114234744,3.3684800122182486,7.6461159322708268,1.3911546296753992,1.1096617765695409,0.84804700634610342,0.74331306612295833,-321.86779606048100,-5.90304473841483032E-002,112.68247387288058,206.01950047140474,246.55272394965220,308.65475337442030,93.268042499348965,76.489333333333335,6.4216666666666811,2.2570914667227315,6.2521256612142224,0.21367190247292700
20191027193000,420.08402167393410,7.8367543052758144,0.44988124122624923,0,55.064733525691537,0,6.5236461574968496,0,-0.47811982764233885,0,270.36501632694768,3.7241307100641432,7.8441984777830500,1.2517470504603849,1.0572451746838218,0.71940389374634772,0.62271304394525417,-363.81932927290774,-5.22237233463418923E-002,111.55962427143673,203.96657328545263,244.09589443298688,305.57909435755141,93.293444153428823,77.525000000000006,6.1673333333333176,2.1201264409727414,5.9924028778076490,0.21251397137752912
20191027200000,420.50630097180925,7.8373434887053417,0.55315907608520731,0,76.924697843886079,0,11.171058151666129,0,-0.46375931434272977,1,262.35459678781814,2.7418179895509276,6.3555091634038652,1.1688832593156073,1.0427186737653773,0.78456078625176173,0.69003332718534538,-354.49290019042365,-5.35976883875353555E-002,112.99251496948666,206.58635447853678,247.23110341965568,309.50400397142829,93.344375771050338,78.793000000000006,5.9416666666666629,1.9695414091840246,5.7949326019287355,0.17968649890527863
20191027203000,420.30122407901393,7.7496205159030183,0.37126543781541588,0,37.500983730328649,0,3.6527903936787589,1,0.13116594270871695,2,267.14728537509666,2.2978433838972325,6.3688851569712686,1.1562166340579427,0.83930236781713341,0.66634976480099939,0.56490892688173011,-399.08578347343683,-4.76088119066377102E-002,109.71748676771729,200.59855840903037,240.06524082891161,300.53319434000542,93.380131090884618,79.471333333333334,5.6610000000000014,1.8698279120692995,5.5281790353617453,0.15690403182283030
20191027210000,419.93179943872991,7.7317742348552150,0.28961895316008462,0,25.685587154325006,0,5.9043564242069992,0,0.58563928445907609,0,266.81337613265919,1.8328005086474843,4.9063309747101931,0.89383497128158429,0.73028340719304119,0.55048146882239668,0.49882037112033223,-401.27480655678710,-4.73490976496456981E-002,115.72204021994835,211.57679717380975,253.20338874904846,316.98059650666966,93.418281935980914,79.429000000000002,5.6413333333333640,1.8711294262995797,5.5288167190552144,9.83679977012392182E-002
20191027213000,419.07744400386019,7.5015915387158110,0.35800547111432685,0,22.006261809853065,0,18.134676213844884,0,2.1590946075566180,0,270.69521650886674,2.9827730068615277,7.1350815993327990,1.2299328593769685,0.84923084651118497,0.64284205081079937,0.55424092747818055,-642.63425436188629,-2.95658064770704561E-002,111.20654590137067,203.32103341640141,243.32334808291566,304.61195800094708,93.458544250868059,78.235333333333330,5.4303333333333512,1.9509133801593408,5.2799725087484148,0.10762784543406081
20191027220000,418.63084887000429,7.4619812500759508,0.29010739028361587,0,18.608950547591398,0,7.8007982267855427,0,1.2309784174562106,0,252.98181616805448,1.8323415974990764,5.1660826530566082,0.88972756608398684,0.82167690050889430,0.56416314732141915,0.49885096824074537,-554.22257311885699,-3.42822557606748957E-002,113.47698402250614,207.47211842093589,248.29113663143991,310.83103976446529,93.483302411603631,77.853666666666669,5.4283333333333417,1.9848488488032456,5.2936796984955663,7.20121701708671819E-002
20191027223000,417.85443151342952,7.3445876699050947,0.26193739341757688,0,2.6092706593637764,1,6.1638181004810288,0,0.57140743740894295,0,246.96344606928778,2.1770407025147760,6.1106728400412562,0.94470076020708249,0.75746086559200287,0.56798966192648082,0.47394623828809451,-3389.8640541119089,-5.60494453367620452E-003,108.33425957123185,198.06957793616755,237.03869711352019,296.74432075107762,93.492130588324656,76.847666666666669,5.3886666666666656,2.0692979930170394,5.2459814461602150,3.36668568851825611E-002